�������l�o���
Date,Time,MP-1(��Sv/h),MP-2(��Sv/h),MP-3(��Sv/h),MP-4(��Sv/h),MP-5(��Sv/h),MP-6(��Sv/h),MP-7(��Sv/h),MP-8(��Sv/h),����,����(m/s),���J
2023/10/04,00:00,0.527,0.803,0.494,1.000,0.720,0.322,0.573,0.533,�쐼,1.9,��
2023/10/04,00:10,0.527,0.804,0.493,0.997,0.718,0.322,0.574,0.533,��쐼,2.9,��
2023/10/04,00:20,0.527,0.804,0.494,0.998,0.720,0.322,0.574,0.532,�쐼,3.7,��
2023/10/04,00:30,0.527,0.802,0.495,0.999,0.719,0.322,0.573,0.533,�쐼,3.0,��
2023/10/04,00:40,0.527,0.804,0.493,0.998,0.720,0.320,0.573,0.532,���쐼,2.8,��
2023/10/04,00:50,0.527,0.803,0.493,0.999,0.719,0.322,0.573,0.532,��,2.6,��
2023/10/04,01:00,0.527,0.803,0.494,1.002,0.720,0.321,0.573,0.532,��,1.9,��
2023/10/04,01:10,0.526,0.805,0.495,1.000,0.722,0.322,0.573,0.532,���쐼,2.3,��
2023/10/04,01:20,0.528,0.802,0.493,0.999,0.719,0.321,0.571,0.533,�쐼,3.8,�L
2023/10/04,01:30,0.527,0.803,0.495,0.999,0.719,0.321,0.573,0.532,���쐼,4.0,�L
2023/10/04,01:40,0.527,0.804,0.494,0.999,0.720,0.322,0.573,0.533,���쐼,3.4,�L
2023/10/04,01:50,0.528,0.804,0.495,0.999,0.718,0.323,0.573,0.532,���k��,1.2,�L
2023/10/04,02:00,0.529,0.804,0.494,0.998,0.718,0.322,0.572,0.534,���k��,1.2,�L
2023/10/04,02:10,0.528,0.803,0.494,1.000,0.720,0.323,0.573,0.534,�k��,2.3,��
2023/10/04,02:20,0.528,0.803,0.495,0.999,0.721,0.322,0.573,0.533,�쐼,1.4,��
2023/10/04,02:30,0.526,0.803,0.494,0.999,0.721,0.322,0.573,0.534,�쐼,2.5,��
2023/10/04,02:40,0.527,0.802,0.495,0.999,0.720,0.322,0.575,0.534,�쐼,3.0,��
2023/10/04,02:50,0.526,0.803,0.494,0.999,0.719,0.322,0.573,0.533,��쐼,4.6,��
2023/10/04,03:00,0.526,0.802,0.494,1.001,0.721,0.321,0.574,0.533,��쐼,3.1,��
2023/10/04,03:10,0.525,0.801,0.494,0.997,0.720,0.322,0.575,0.534,��,2.8,��
2023/10/04,03:20,0.526,0.803,0.494,0.998,0.720,0.322,0.574,0.533,�쐼,3.4,��
2023/10/04,03:30,0.527,0.803,0.493,1.000,0.719,0.321,0.572,0.535,���쐼,2.5,��
2023/10/04,03:40,0.526,0.802,0.492,0.999,0.719,0.323,0.574,0.533,���k��,2.6,�L
2023/10/04,03:50,0.528,0.803,0.492,0.999,0.720,0.322,0.575,0.532,�k��,3.5,�L
2023/10/04,04:00,0.527,0.802,0.494,1.000,0.721,0.321,0.573,0.532,�k��,3.2,�L
2023/10/04,04:10,0.527,0.803,0.493,0.999,0.719,0.321,0.574,0.532,�k��,3.4,�L
2023/10/04,04:20,0.526,0.799,0.493,1.000,0.721,0.321,0.574,0.533,���k��,2.5,�L
2023/10/04,04:30,0.528,0.804,0.493,1.001,0.717,0.320,0.573,0.533,���k��,1.9,�L
2023/10/04,04:40,0.528,0.803,0.494,0.998,0.719,0.321,0.574,0.532,��,2.8,�L
2023/10/04,04:50,0.525,0.801,0.494,1.000,0.720,0.322,0.574,0.532,��,2.0,�L
2023/10/04,05:00,0.526,0.802,0.493,0.999,0.719,0.321,0.575,0.534,���k��,2.6,�L
2023/10/04,05:10,0.525,0.799,0.491,1.001,0.716,0.323,0.573,0.532,���쐼,3.0,�L
2023/10/04,05:20,0.523,0.795,0.490,0.997,0.715,0.322,0.570,0.532,�쐼,3.9,�L
2023/10/04,05:30,0.522,0.791,0.489,0.995,0.712,0.321,0.569,0.531,�쐼,4.5,�L
2023/10/04,05:40,0.521,0.790,0.488,0.994,0.710,0.319,0.569,0.528,�쐼,4.8,�L
2023/10/04,05:50,0.520,0.788,0.489,0.992,0.707,0.319,0.566,0.528,�쐼,4.9,�L
2023/10/04,06:00,0.520,0.787,0.487,0.990,0.707,0.320,0.566,0.528,�쐼,5.7,�L
2023/10/04,06:10,0.521,0.788,0.487,0.990,0.706,0.320,0.567,0.527,�쐼,5.7,�L
2023/10/04,06:20,0.518,0.787,0.487,0.988,0.703,0.319,0.566,0.527,��쐼,7.0,�L
2023/10/04,06:30,0.518,0.785,0.487,0.989,0.703,0.319,0.567,0.525,�쐼,6.8,�L
2023/10/04,06:40,0.517,0.784,0.487,0.989,0.700,0.319,0.567,0.527,���쐼,6.3,�L
2023/10/04,06:50,0.515,0.782,0.487,0.985,0.700,0.320,0.566,0.525,���쐼,5.9,�L
2023/10/04,07:00,0.514,0.779,0.486,0.985,0.699,0.319,0.566,0.525,���쐼,4.0,�L
2023/10/04,07:10,0.514,0.779,0.485,0.985,0.700,0.318,0.564,0.526,��,3.3,�L
2023/10/04,07:20,0.514,0.778,0.487,0.986,0.702,0.319,0.566,0.525,��,3.3,�L
2023/10/04,07:30,0.513,0.779,0.484,0.983,0.700,0.319,0.566,0.527,��,4.9,�L
2023/10/04,07:40,0.515,0.780,0.485,0.983,0.700,0.318,0.566,0.525,��,5.2,�L
2023/10/04,07:50,0.514,0.782,0.483,0.984,0.700,0.318,0.564,0.526,��,3.9,�L
2023/10/04,08:00,0.515,0.779,0.484,0.984,0.700,0.318,0.564,0.526,��,3.4,�L
2023/10/04,08:10,0.515,0.778,0.483,0.983,0.700,0.317,0.566,0.527,���쐼,4.4,�L
2023/10/04,08:20,0.515,0.777,0.483,0.983,0.698,0.317,0.565,0.527,��,4.5,�L
2023/10/04,08:30,0.515,0.781,0.483,0.983,0.698,0.317,0.565,0.526,��,4.3,�L
2023/10/04,08:40,0.512,0.781,0.484,0.982,0.698,0.316,0.565,0.526,��,3.7,�L
2023/10/04,08:50,0.513,0.779,0.485,0.981,0.697,0.317,0.566,0.525,���k��,3.9,�L
2023/10/04,09:00,0.513,0.779,0.484,0.983,0.700,0.316,0.565,0.526,���k��,5.4,�L
2023/10/04,09:10,0.514,0.779,0.482,0.982,0.700,0.318,0.565,0.526,���k��,4.7,�L
2023/10/04,09:20,0.513,0.778,0.482,0.985,0.698,0.316,0.565,0.526,��,4.5,�L
2023/10/04,09:30,0.511,0.780,0.484,0.982,0.700,0.317,0.565,0.526,��,3.8,�L
2023/10/04,09:40,0.512,0.776,0.484,0.983,0.698,0.316,0.565,0.526,��,3.7,�L
2023/10/04,09:50,0.514,0.775,0.483,0.979,0.698,0.315,0.565,0.526,��,4.5,�L
2023/10/04,10:00,0.515,0.776,0.484,0.983,0.697,0.317,0.563,0.525,�쐼,4.2,�L
2023/10/04,10:10,0.513,0.779,0.483,0.980,0.700,0.317,0.563,0.526,�쐼,3.4,�L
2023/10/04,10:20,0.510,0.774,0.483,0.981,0.697,0.318,0.564,0.524,��쐼,4.1,�L
2023/10/04,10:30,0.512,0.775,0.483,0.981,0.694,0.318,0.563,0.525,��쐼,4.4,�L
2023/10/04,10:40,0.512,0.772,0.483,0.979,0.695,0.317,0.563,0.526,��쐼,3.6,�L
2023/10/04,10:50,0.510,0.772,0.483,0.973,0.684,0.316,0.562,0.524,��쓌,6.5,�L
2023/10/04,11:00,0.508,0.773,0.483,0.971,0.687,0.316,0.561,0.522,��쐼,4.8,�L
2023/10/04,11:10,0.509,0.772,0.482,0.969,0.687,0.316,0.561,0.524,���쐼,3.0,�L
2023/10/04,11:20,0.509,0.774,0.482,0.969,0.689,0.317,0.561,0.524,���쐼,3.4,�L
2023/10/04,11:30,0.510,0.772,0.483,0.971,0.690,0.317,0.560,0.524,�쐼,3.1,�L
2023/10/04,11:40,0.509,0.773,0.482,0.970,0.690,0.318,0.562,0.525,�쐼,2.6,��
2023/10/04,11:50,0.510,0.773,0.481,0.969,0.690,0.316,0.563,0.523,��쐼,3.6,��
2023/10/04,12:00,0.511,0.772,0.483,0.969,0.690,0.316,0.562,0.525,��,3.5,��
2023/10/04,12:10,0.508,0.773,0.481,0.970,0.689,0.315,0.562,0.523,��,3.8,��
2023/10/04,12:20,0.508,0.772,0.479,0.969,0.690,0.316,0.563,0.524,��쐼,4.8,�L
2023/10/04,12:30,0.509,0.773,0.479,0.967,0.689,0.313,0.564,0.524,��쐼,5.0,��
2023/10/04,12:40,0.509,0.773,0.482,0.970,0.688,0.315,0.562,0.522,��,4.7,��
2023/10/04,12:50,0.509,0.774,0.479,0.968,0.691,0.316,0.564,0.525,��,4.0,��
2023/10/04,13:00,0.507,0.773,0.479,0.967,0.689,0.314,0.564,0.523,��,4.7,��
2023/10/04,13:10,0.510,0.773,0.479,0.967,0.689,0.315,0.564,0.525,��,4.9,��
2023/10/04,13:20,0.509,0.774,0.480,0.968,0.690,0.314,0.564,0.524,��,5.1,��
2023/10/04,13:30,0.509,0.774,0.480,0.970,0.691,0.314,0.564,0.524,��,4.8,��
2023/10/04,13:40,0.511,0.776,0.479,0.969,0.692,0.316,0.563,0.525,��쓌,5.4,��
2023/10/04,13:50,0.510,0.775,0.480,0.969,0.691,0.314,0.564,0.525,��쓌,5.1,��
2023/10/04,14:00,0.510,0.774,0.479,0.969,0.691,0.313,0.565,0.524,��,4.7,��
2023/10/04,14:10,0.509,0.777,0.480,0.970,0.689,0.314,0.563,0.525,��쓌,5.6,��
2023/10/04,14:20,0.511,0.775,0.480,0.968,0.695,0.314,0.563,0.524,��,5.7,��
2023/10/04,14:30,0.511,0.777,0.480,0.970,0.693,0.314,0.564,0.525,��,5.3,��
2023/10/04,14:40,0.510,0.776,0.479,0.969,0.693,0.316,0.565,0.523,��,6.3,��
2023/10/04,14:50,0.510,0.775,0.479,0.969,0.693,0.314,0.564,0.525,��,4.9,�L
2023/10/04,15:00,0.509,0.775,0.480,0.971,0.691,0.313,0.563,0.524,��,4.8,��
2023/10/04,15:10,0.512,0.777,0.481,0.970,0.692,0.314,0.563,0.524,��,5.2,�L
2023/10/04,15:20,0.510,0.777,0.482,0.970,0.691,0.314,0.566,0.525,��,5.7,�L
2023/10/04,15:30,0.510,0.776,0.484,0.972,0.690,0.316,0.565,0.525,��,4.8,��
2023/10/04,15:40,0.512,0.775,0.483,0.972,0.693,0.316,0.565,0.526,��,4.6,�L
2023/10/04,15:50,0.511,0.778,0.484,0.971,0.693,0.315,0.564,0.527,��,4.9,�L
2023/10/04,16:00,0.511,0.779,0.484,0.972,0.692,0.315,0.565,0.526,��,5.4,�L
2023/10/04,16:10,0.512,0.777,0.482,0.970,0.694,0.315,0.564,0.525,��쓌,5.4,��
2023/10/04,16:20,0.511,0.780,0.484,0.970,0.694,0.315,0.563,0.526,��쓌,4.7,��
2023/10/04,16:30,0.510,0.780,0.484,0.971,0.695,0.315,0.564,0.528,��,4.6,�L
2023/10/04,16:40,0.513,0.780,0.482,0.970,0.695,0.315,0.564,0.528,��쓌,4.8,�L
2023/10/04,16:50,0.510,0.780,0.482,0.970,0.694,0.316,0.566,0.528,��쓌,5.5,��
2023/10/04,17:00,0.511,0.779,0.483,0.972,0.694,0.315,0.565,0.526,��쓌,5.9,��
2023/10/04,17:10,0.511,0.780,0.482,0.969,0.694,0.315,0.566,0.528,��쓌,5.6,��
2023/10/04,17:20,0.510,0.777,0.481,0.974,0.693,0.315,0.566,0.527,��쓌,6.0,��
2023/10/04,17:30,0.513,0.780,0.480,0.971,0.694,0.316,0.566,0.527,��,5.9,��
2023/10/04,17:40,0.511,0.779,0.481,0.972,0.692,0.315,0.564,0.528,��,4.9,�L
2023/10/04,17:50,0.511,0.781,0.482,0.972,0.695,0.316,0.565,0.527,��,5.3,�L
2023/10/04,18:00,0.510,0.781,0.482,0.971,0.692,0.316,0.566,0.527,��,5.5,��
2023/10/04,18:10,0.510,0.782,0.482,0.972,0.696,0.316,0.565,0.526,��,5.1,�L
2023/10/04,18:20,0.510,0.782,0.482,0.972,0.697,0.315,0.565,0.528,��쐼,4.6,�L
2023/10/04,18:30,0.511,0.782,0.483,0.971,0.697,0.315,0.566,0.528,��쐼,4.4,�L
2023/10/04,18:40,0.512,0.782,0.484,0.975,0.696,0.317,0.566,0.526,��쐼,4.5,�L
2023/10/04,18:50,0.512,0.781,0.484,0.973,0.699,0.316,0.565,0.529,��쐼,4.2,�L
2023/10/04,19:00,0.513,0.781,0.482,0.971,0.695,0.316,0.566,0.527,��,3.8,��
2023/10/04,19:10,0.511,0.782,0.483,0.972,0.695,0.316,0.565,0.527,��,4.0,��
2023/10/04,19:20,0.511,0.781,0.484,0.974,0.694,0.317,0.565,0.527,��,4.0,��
2023/10/04,19:30,0.512,0.780,0.484,0.971,0.697,0.315,0.565,0.528,��,3.5,��
2023/10/04,19:40,0.513,0.781,0.483,0.971,0.695,0.316,0.565,0.528,��,3.4,��
2023/10/04,19:50,0.514,0.782,0.483,0.973,0.695,0.317,0.565,0.527,��,3.4,��
2023/10/04,20:00,0.512,0.781,0.483,0.971,0.694,0.315,0.564,0.527,��,4.4,��
2023/10/04,20:10,0.511,0.780,0.484,0.974,0.696,0.317,0.563,0.526,��,5.4,��
2023/10/04,20:20,0.512,0.782,0.484,0.972,0.695,0.317,0.564,0.528,��,5.2,��
2023/10/04,20:30,0.513,0.780,0.482,0.970,0.695,0.317,0.565,0.528,��쐼,6.1,��
2023/10/04,20:40,0.513,0.781,0.483,0.971,0.694,0.315,0.565,0.527,��쐼,6.5,��
2023/10/04,20:50,0.513,0.779,0.482,0.974,0.695,0.316,0.564,0.526,��쐼,6.8,��
2023/10/04,21:00,0.512,0.780,0.484,0.971,0.693,0.315,0.564,0.528,��쐼,6.3,��
2023/10/04,21:10,0.510,0.780,0.483,0.971,0.695,0.316,0.566,0.527,�쐼,5.2,��
2023/10/04,21:20,0.511,0.778,0.482,0.972,0.695,0.316,0.564,0.526,�쐼,4.5,��
2023/10/04,21:30,0.511,0.780,0.483,0.973,0.693,0.317,0.565,0.526,��쐼,4.3,��
2023/10/04,21:40,0.510,0.779,0.482,0.971,0.694,0.317,0.563,0.526,�쐼,3.8,��
2023/10/04,21:50,0.511,0.780,0.483,0.974,0.694,0.316,0.564,0.526,���쐼,3.8,��
2023/10/04,22:00,0.510,0.780,0.482,0.972,0.694,0.316,0.563,0.528,���쐼,4.0,��
2023/10/04,22:10,0.513,0.781,0.481,0.972,0.696,0.316,0.564,0.526,�쐼,4.6,��
2023/10/04,22:20,0.512,0.780,0.482,0.973,0.698,0.317,0.563,0.525,�쐼,4.1,��
2023/10/04,22:30,0.512,0.782,0.482,0.971,0.696,0.317,0.562,0.526,��쐼,4.5,��
2023/10/04,22:40,0.513,0.780,0.483,0.973,0.695,0.317,0.563,0.527,��,4.2,��
2023/10/04,22:50,0.513,0.780,0.482,0.972,0.695,0.318,0.564,0.527,��쐼,3.9,��
2023/10/04,23:00,0.513,0.782,0.482,0.973,0.696,0.319,0.564,0.527,��쐼,3.2,��
2023/10/04,23:10,0.512,0.779,0.483,0.971,0.696,0.317,0.563,0.527,�쐼,3.0,��
2023/10/04,23:20,0.513,0.781,0.482,0.972,0.697,0.317,0.566,0.528,���쐼,3.4,��
2023/10/04,23:30,0.514,0.779,0.483,0.973,0.696,0.318,0.564,0.528,���쐼,3.9,��
2023/10/04,23:40,0.513,0.781,0.484,0.973,0.696,0.316,0.565,0.529,���쐼,3.4,��
2023/10/04,23:50,0.514,0.780,0.483,0.973,0.697,0.318,0.564,0.528,���쐼,2.3,��
